This is the latest recevied weather packets stored in our database for station/object K7GFH-13. If no packets are shown the sender has not sent any weather packets the latest 10 day(s).
| Time | Temp. | Humidity | Pressure | Rain* | Wind** | Luminosity | Snow |
|---|---|---|---|---|---|---|---|
| 1777783002 | 17.22° C | 77% | 1014.6 hPa | 0 mm | - | 0 W/m² | - |
| 1777782098 | 17.78° C | 76% | 1014.5 hPa | 0 mm | - | 0 W/m² | - |
| 1777781195 | 17.22° C | 77% | 1014.8 hPa | 0 mm | - | 0 W/m² | - |
| 1777780293 | 16.67° C | 79% | 1014.6 hPa | 0 mm | - | 0 W/m² | - |
| 1777779390 | 16.67° C | 80% | 1014.7 hPa | 0 mm | - | 0 W/m² | - |
| 1777778490 | 17.78° C | 75% | 1014.8 hPa | 0 mm | - | 3 W/m² | - |
| 1777777586 | 17.78° C | 76% | 1014.8 hPa | 0 mm | - | 7 W/m² | - |
| 1777776684 | 18.33° C | 73% | 1014.6 hPa | 0 mm | - | 15 W/m² | - |
| 1777775780 | 18.89° C | 69% | 1014.7 hPa | 0 mm | - | 30 W/m² | - |
| 1777774880 | 19.44° C | 67% | 1014.3 hPa | 0 mm | - | 47 W/m² | - |
| 1777773977 | 19.44° C | 67% | 1014.1 hPa | 0 mm | - | 62 W/m² | - |
| 1777772170 | 20.56° C | 61% | 1013.6 hPa | 0 mm | - | 97 W/m² | - |
| 1777771267 | 20.56° C | 62% | 1013.7 hPa | 0 mm | - | 113 W/m² | - |
| 1777768556 | 20° C | 63% | 1013.7 hPa | 0 mm | - | 166 W/m² | - |
| 1777767653 | 21.11° C | 60% | 1013.7 hPa | 0 mm | - | 171 W/m² | - |
| 1777766750 | 20.56° C | 61% | 1013.7 hPa | 0 mm | - | 241 W/m² | - |
| 1777764946 | 20.56° C | 60% | 1013.7 hPa | 0 mm | - | 286 W/m² | - |
| 1777764042 | 20° C | 60% | 1014 hPa | 0 mm | - | 364 W/m² | - |
| 1777761334 | 20° C | 62% | 1014.5 hPa | 0 mm | - | 563 W/m² | - |
| 1777760431 | 19.44° C | 64% | 1014.6 hPa | 0 mm | - | 647 W/m² | - |
| 1777759531 | 18.89° C | 64% | 1015.1 hPa | 0 mm | - | 608 W/m² | - |
| 1777757725 | 18.33° C | 68% | 1015.4 hPa | 0 mm | - | 708 W/m² | - |
| 1777756825 | 17.78° C | 67% | 1015.5 hPa | 0 mm | - | 714 W/m² | - |
| 1777755921 | 17.22° C | 70% | 1015.6 hPa | 0 mm | - | 729 W/m² | - |
| 1777754115 | 16.67° C | 72% | 1016.3 hPa | 0 mm | - | 736 W/m² | - |
* Rain latest hour (hover to see other rain measurements)
** Current wind speed in m/s (hover to see current wind gust speed)